[[{"header":{"parameterUnit":"m.s-1","parameterCategory":1,"la1":30.2991,"la2":30.254,"lo1":-89.0895,"lo2":-89.0444,"dy":0.0017,"dx":0.0017,"nx":28,"ny":28,"refTime":"2025-09-01T21:00:00:Z","depth":0,"parameterNumber":2,"parameterNumberName":"U-component_of_WINDS"},"data":[0,0,0,0,0,0,0,0,0,0,0,0,0,0,0,0,0,0,0,0,0,0,0,0,0,0,0,0,0,0,0,0,0,0,0,0,0,0,0,0,0,0,0,0,0,0,0,0,0,0,0,0,0,0,0,0,0,0,-4.3798,-4.38,0,-4.4064,-4.4067,-4.407,-4.4039,-4.4035,-4.403,-4.4026,-4.4302,-4.4313,-4.4324,0,0,0,0,0,0,0,0,0,0,0,0,0,-4.3264,-4.3274,-4.3797,-4.3801,-4.3804,-4.4063,-4.4067,-4.4071,-4.404,-4.4034,-4.4029,-4.4024,-4.4298,-4.4311,-4.4325,0,0,0,0,0,0,0,0,0,0,0,0,0,-4.351,-4.3277,-4.3797,-4.382,-4.3824,-4.4063,-4.4067,-4.4072,-4.4041,-4.4034,-4.4028,-4.4022,-4.4293,-4.431,-4.4327,-4.456,0,0,-4.4379,-4.4386,0,0,0,0,0,0,0,0,-4.3496,-4.3529,-4.3813,-4.3819,-4.3824,-4.4011,-4.398,-4.4235,-4.4042,-4.3959,-4.4026,-4.4019,-4.421,-4.4234,-4.4298,-4.4573,-4.4584,-4.438,-4.439,-4.4398,-4.4402,0,0,0,0,0,0,0,-4.3479,-4.3518,-4.3903,-4.3817,-4.3824,-4.3817,-4.3845,-4.4028,-4.4117,-4.3965,-4.3964,-4.3996,-4.4212,-4.4282,-4.4304,-4.4588,-4.438,-4.4395,-4.4405,-4.4412,-4.5068,-4.5075,0,0,0,0,0,0,-4.3456,-4.3504,-4.3894,-4.3911,-4.3641,-4.3832,-4.3863,-4.3958,-4.4115,-4.4133,-4.4001,-4.3993,-4.4256,-4.4284,-4.4314,-4.4596,-4.4397,-4.4413,-4.4423,-4.5061,-4.5069,-4.5077,0,0,0,0,0,0,-4.3444,-4.3491,-4.3883,-4.3707,-4.3756,-4.3848,-4.3955,-4.3967,-4.4036,-4.4142,-4.4158,-4.4055,-4.4252,-4.429,-4.4499,-4.4605,-4.4421,-4.4436,-4.5052,-4.5063,-4.5073,-4.5164,0,0,0,0,0,0,-4.3429,-4.3487,-4.3576,-4.3709,-4.3766,-4.4063,-4.3961,-4.3976,-4.4065,-4.4057,-4.4197,-4.4214,-4.425,-4.4473,-4.4515,-4.4626,-4.445,-4.5043,-4.5057,-4.507,-4.5152,-4.5176,-4.5198,0,0,0,0,0,-4.341,-4.3591,-4.358,-4.3628,-4.3879,-4.407,-4.4102,-4.4139,-4.4074,-4.4164,-4.4232,-4.421,-4.4587,-4.4495,-4.4542,-4.4659,-4.5036,-4.5053,-4.5069,-4.5141,-4.5171,-4.5197,0,0,0,0,0,0,-4.3469,-4.3609,-4.3599,-4.3828,-4.3937,-4.4064,-4.4179,-4.417,-4.43,-4.4287,-4.4328,-4.436,-4.4571,-4.4636,-4.4531,-4.4893,-4.4803,-4.483,-4.4842,-4.4872,-4.4894,-4.4873,-4.4464,0,0,0,0,0,-4.3508,-4.3651,-4.3766,-4.3957,-4.4012,-4.4087,-4.4171,-4.419,-4.4305,-4.4351,-4.4434,-4.4547,-4.4691,-4.4785,-4.4924,-4.5161,-4.5191,-4.5265,-4.5288,-4.5306,-4.5328,-4.5459,-4.5493,-4.5131,-4.5131,-4.513,0,0,-4.3591,-4.3686,-4.3773,-4.3971,-4.4058,-4.4205,-4.4125,-4.4285,-4.4394,-4.4375,-4.4577,-4.4642,-4.4771,-4.4995,-4.5098,-4.5056,-4.5435,-4.5327,-4.5341,-4.5353,-4.5479,-4.5513,-4.5543,-4.5142,-4.514,-4.5138,0,0,-4.3818,-4.3904,-4.4072,-4.4161,-4.4292,-4.4341,-4.4381,-4.451,-4.4553,-4.4756,-4.4744,-4.4876,-4.5123,-4.5216,-4.5295,-4.5557,-4.5541,-4.5601,-4.5721,-4.5847,-4.5876,-4.5901,-4.5994,-4.6027,-4.5623,-4.5623,-4.5624,0,-4.3904,-4.4125,-4.416,-4.4321,-4.4408,-4.4397,-4.4568,-4.4653,-4.4824,-4.4885,-4.4835,-4.5146,-4.5232,-4.5477,-4.5541,-4.5606,-4.5653,-4.5585,-4.5869,-4.5895,-4.5919,-4.6008,-4.6043,-4.563,-4.5629,-4.5628,-4.5628,0,-4.4224,-4.4378,-4.4498,-4.4662,-4.4764,-4.4929,-4.499,-4.5089,-4.5099,-4.5153,-4.536,-4.5463,-4.5622,-4.5682,-4.5694,-4.5929,-4.5899,-4.5859,-4.5769,-4.5959,-4.6043,-4.6078,-4.5639,-4.5637,-4.5635,-4.5633,0,0,-4.4494,-4.4676,-4.4719,-4.4793,-4.4939,-4.5058,-4.5224,-4.5378,-4.5462,-4.5581,-4.572,-4.593,-4.5894,-4.5984,-4.6006,-4.6118,-4.6318,-4.6064,-4.6068,-4.6107,-4.6583,-4.6611,-4.665,-4.6309,-4.6316,-4.6321,-4.6572,0,-4.4733,-4.5024,-4.5061,-4.5319,-4.5461,-4.5454,-4.5597,-4.5703,-4.5758,-4.5887,-4.5948,-4.6096,-4.6037,-4.6091,-4.6201,-4.627,-4.6414,-4.6253,-4.6439,-4.6445,-4.6405,-4.6694,-4.6725,-4.6956,-4.6605,-4.6611,-4.6615,0,-4.5051,-4.5177,-4.545,-4.5575,-4.5636,-4.5765,-4.591,-4.6033,-4.6153,-4.6185,-4.6286,-4.6295,-4.6466,-4.6371,-4.6608,-4.6497,-4.6576,-4.6622,-4.6632,-4.6649,-4.654,-4.6719,-4.7031,-4.7065,-4.6667,-4.6663,-4.6659,0,-4.5218,-4.5457,-4.5651,-4.5715,-4.5867,-4.5957,-4.6025,-4.6138,-4.6229,-4.6356,-4.6415,-4.6561,-4.6641,-4.6754,-4.6803,-4.6729,-4.7037,-4.6946,-4.7069,-4.7067,-4.7132,-4.7127,-4.7461,-4.7186,-4.7185,-4.7185,-4.7184,0,-4.5481,-4.5647,-4.5728,-4.5847,-4.6033,-4.6075,-4.6259,-4.6324,-4.6425,-4.6556,-4.656,-4.6684,-4.674,-4.6874,-4.6913,-4.7103,-4.714,-4.717,-4.7179,-4.717,-4.7165,-4.722,-4.7205,-4.7194,-4.7192,-4.719,-4.7188,0,-4.5698,-4.5759,-4.5969,-4.6096,-4.6132,-4.6264,-4.6372,-4.6488,-4.6542,-4.6709,-4.6751,-4.6836,-4.6993,-4.7053,-4.7245,-4.7271,-4.749,-4.7486,-4.7449,-4.7451,-4.757,-4.7558,-4.795,-4.8003,-4.7694,-4.7697,-4.7699,0,-4.5861,-4.5989,-4.6129,-4.6217,-4.6288,-4.643,-4.6522,-4.6569,-4.6665,-4.6812,-4.691,-4.7066,-4.7193,-4.7444,-4.7524,-4.7671,-4.7669,-4.7797,-4.7692,-4.7678,-4.767,-4.7661,-4.7674,-4.7816,-4.7819,-4.7821,-4.7823,0,-4.6143,-4.6167,-4.6299,-4.6443,-4.6553,-4.6669,-4.6781,-4.6854,-4.6918,-4.7026,-4.7186,-4.7284,-4.748,-4.7635,-4.7786,-4.7857,-4.7852,-4.7856,-4.7892,-4.7883,-4.7856,-4.7871,-4.7501,-4.7847,-4.7844,-4.7843,-4.7841,-4.784,-4.6337,-4.645,-4.6566,-4.6714,-4.6804,-4.6909,-4.7024,-4.7092,-4.7226,-4.7388,-4.7408,-4.758,-4.7697,-4.7899,-4.7977,-4.8112,-4.8078,-4.8131,-4.8144,-4.8156,-4.8163,-4.7836,-4.814,-4.814,-4.8139,-4.8139,-4.8138,0,-4.6618,-4.6692,-4.6828,-4.6985,-4.7102,-4.7086,-4.721,-4.7309,-4.7459,-4.7569,-4.7694,-4.7878,-4.8029,-4.812,-4.8272,-4.8363,-4.8364,-4.8401,-4.8394,-4.841,-4.8185,-4.8138,-4.8397,-4.8397,-4.8397,-4.8397,-4.8397,-4.8397,-4.6777,-4.6968,-4.7005,-4.724,-4.7314,-4.7482,-4.7554,-4.7651,-4.7738,-4.7943,-4.8068,-4.8127,-4.823,-4.8389,-4.8527,-4.855,-4.8605,-4.8645,-4.8665,-4.8453,-4.8426,-4.8401,-4.8357,-4.8657,-4.8657,-4.8879,-4.8881,-4.8882]},{"header":{"parameterUnit":"m.s-1","parameterCategory":1,"la1":30.2991,"la2":30.254,"lo1":-89.0895,"lo2":-89.0444,"dy":0.0017,"dx":0.0017,"nx":28,"ny":28,"refTime":"2025-09-01T21:00:00:Z","depth":0,"parameterNumber":3,"parameterNumberName":"V-component_of_WINDS"},"data":[0,0,0,0,0,0,0,0,0,0,0,0,0,0,0,0,0,0,0,0,0,0,0,0,0,0,0,0,0,0,0,0,0,0,0,0,0,0,0,0,0,0,0,0,0,0,0,0,0,0,0,0,0,0,0,0,0,0,-0.8421,-0.842,0,-0.834,-0.8339,-0.8338,-0.8312,-0.8313,-0.8313,-0.8313,-0.8225,-0.8222,-0.822,0,0,0,0,0,0,0,0,0,0,0,0,0,-0.855,-0.8548,-0.8421,-0.842,-0.8419,-0.834,-0.8339,-0.8337,-0.8312,-0.8313,-0.8313,-0.8314,-0.8226,-0.8223,-0.822,0,0,0,0,0,0,0,0,0,0,0,0,0,-0.8484,-0.8547,-0.8421,-0.8397,-0.8394,-0.834,-0.8338,-0.8337,-0.8312,-0.8313,-0.8313,-0.8314,-0.8227,-0.8223,-0.8219,-0.8182,0,0,-0.8207,-0.8205,0,0,0,0,0,0,0,0,-0.8488,-0.8479,-0.8402,-0.8399,-0.8395,-0.8337,-0.8352,-0.8285,-0.8312,-0.8343,-0.8313,-0.8314,-0.8261,-0.8255,-0.8238,-0.8178,-0.8174,-0.8206,-0.8204,-0.8202,-0.8201,0,0,0,0,0,0,0,-0.8492,-0.8482,-0.8389,-0.8401,-0.8397,-0.8389,-0.838,-0.8339,-0.83,-0.834,-0.8338,-0.8329,-0.826,-0.8242,-0.8235,-0.8172,-0.8206,-0.8203,-0.82,-0.8199,-0.8076,-0.8075,0,0,0,0,0,0,-0.8502,-0.8487,-0.8391,-0.8386,-0.8444,-0.8386,-0.8376,-0.8355,-0.83,-0.8292,-0.8329,-0.8328,-0.8248,-0.824,-0.8232,-0.8184,-0.8202,-0.8198,-0.8196,-0.8077,-0.8076,-0.8075,0,0,0,0,0,0,-0.8505,-0.8494,-0.8395,-0.8436,-0.8423,-0.8383,-0.8359,-0.8353,-0.8335,-0.8291,-0.8284,-0.8318,-0.8249,-0.8238,-0.8195,-0.8181,-0.8196,-0.8193,-0.8078,-0.8077,-0.8076,-0.8088,0,0,0,0,0,0,-0.8508,-0.8495,-0.8481,-0.8436,-0.8421,-0.836,-0.8359,-0.8351,-0.8329,-0.8327,-0.8279,-0.8272,-0.8248,-0.8201,-0.819,-0.8175,-0.8189,-0.8079,-0.8077,-0.8076,-0.8089,-0.8088,-0.8087,0,0,0,0,0,-0.8513,-0.8487,-0.8481,-0.8469,-0.8403,-0.8359,-0.835,-0.8325,-0.8328,-0.8313,-0.8285,-0.8273,-0.8184,-0.8197,-0.8185,-0.8168,-0.808,-0.8078,-0.8076,-0.8089,-0.8088,-0.8087,0,0,0,0,0,0,-0.853,-0.8481,-0.8473,-0.8432,-0.84,-0.8355,-0.8336,-0.8324,-0.829,-0.829,-0.8258,-0.8248,-0.8206,-0.8183,-0.8198,-0.8129,-0.8131,-0.8127,-0.8145,-0.8144,-0.8143,-0.8149,-0.8186,0,0,0,0,0,-0.853,-0.85,-0.8457,-0.8425,-0.841,-0.8376,-0.8355,-0.8339,-0.8304,-0.829,-0.8258,-0.8224,-0.8187,-0.8164,-0.8129,-0.8086,-0.8074,-0.8068,-0.8067,-0.8066,-0.8063,-0.8037,-0.8034,-0.8069,-0.8069,-0.8069,0,0,-0.8528,-0.8497,-0.8479,-0.8428,-0.8401,-0.8369,-0.8364,-0.8331,-0.8306,-0.8284,-0.8241,-0.8217,-0.8176,-0.8132,-0.8111,-0.8111,-0.805,-0.8064,-0.8064,-0.806,-0.8035,-0.8031,-0.8028,-0.8068,-0.8068,-0.8068,0,0,-0.8507,-0.8481,-0.8451,-0.8425,-0.8385,-0.8363,-0.8356,-0.8312,-0.8295,-0.8252,-0.8235,-0.8204,-0.8143,-0.8115,-0.8092,-0.806,-0.8048,-0.805,-0.8043,-0.8019,-0.8016,-0.8013,-0.8001,-0.7997,-0.8046,-0.8046,-0.8046,0,-0.8509,-0.8461,-0.8437,-0.8404,-0.8381,-0.8362,-0.833,-0.8305,-0.8255,-0.8239,-0.824,-0.8163,-0.8134,-0.8083,-0.8075,-0.8058,-0.8047,-0.8055,-0.8018,-0.8015,-0.8013,-0.8,-0.7996,-0.8047,-0.8047,-0.8047,-0.8047,0,-0.8465,-0.8432,-0.8412,-0.8366,-0.8341,-0.8309,-0.8278,-0.8256,-0.8241,-0.8218,-0.8174,-0.8138,-0.8095,-0.8082,-0.8067,-0.8028,-0.8029,-0.8025,-0.8027,-0.801,-0.7998,-0.7993,-0.8047,-0.8047,-0.8047,-0.8047,0,0,-0.8452,-0.8394,-0.8387,-0.8365,-0.832,-0.8293,-0.8259,-0.8219,-0.8199,-0.8165,-0.8135,-0.8084,-0.808,-0.8054,-0.8036,-0.8014,-0.799,-0.8012,-0.8011,-0.8009,-0.7944,-0.7947,-0.7942,-0.7982,-0.7981,-0.7981,-0.7947,0,-0.8425,-0.8366,-0.8343,-0.8294,-0.8263,-0.8244,-0.8214,-0.8182,-0.816,-0.8129,-0.8103,-0.8067,-0.8065,-0.8049,-0.8027,-0.7998,-0.7977,-0.8,-0.7952,-0.7951,-0.7963,-0.7936,-0.7939,-0.7909,-0.7942,-0.7942,-0.7941,0,-0.8385,-0.8353,-0.8301,-0.826,-0.8245,-0.822,-0.818,-0.8151,-0.8114,-0.8099,-0.807,-0.8053,-0.8016,-0.8021,-0.7968,-0.7984,-0.7963,-0.7946,-0.7944,-0.7938,-0.7944,-0.7928,-0.7899,-0.7894,-0.7933,-0.7934,-0.7935,0,-0.838,-0.8323,-0.8285,-0.8267,-0.8218,-0.82,-0.8178,-0.8142,-0.8118,-0.8083,-0.8068,-0.8028,-0.8006,-0.7975,-0.7947,-0.7954,-0.7896,-0.7899,-0.7881,-0.7882,-0.7869,-0.787,-0.7836,-0.7857,-0.7857,-0.7858,-0.7858,0,-0.8352,-0.8321,-0.8282,-0.8258,-0.8223,-0.8196,-0.8161,-0.8137,-0.8105,-0.8075,-0.8056,-0.8028,-0.7993,-0.796,-0.7938,-0.7897,-0.7887,-0.7873,-0.7867,-0.7874,-0.7876,-0.7859,-0.786,-0.7856,-0.7857,-0.7857,-0.7857,0,-0.8339,-0.8313,-0.8269,-0.8227,-0.8215,-0.819,-0.8153,-0.8128,-0.8105,-0.8067,-0.8057,-0.802,-0.798,-0.795,-0.7898,-0.7883,-0.7839,-0.7833,-0.7852,-0.7848,-0.7832,-0.7834,-0.7785,-0.7776,-0.7805,-0.7805,-0.7804,0,-0.8323,-0.8299,-0.8254,-0.8233,-0.8212,-0.8179,-0.8155,-0.8128,-0.8104,-0.806,-0.804,-0.7999,-0.7965,-0.7903,-0.787,-0.783,-0.7822,-0.7808,-0.7816,-0.7823,-0.7821,-0.7822,-0.7819,-0.7807,-0.7806,-0.7806,-0.7806,0,-0.8295,-0.8283,-0.8251,-0.8214,-0.8187,-0.8156,-0.8125,-0.8108,-0.8075,-0.8048,-0.8009,-0.7982,-0.793,-0.7889,-0.7846,-0.7821,-0.7807,-0.7804,-0.7798,-0.7804,-0.7815,-0.7808,-0.7848,-0.7805,-0.7805,-0.7805,-0.7805,-0.7805,-0.8279,-0.8257,-0.8222,-0.8186,-0.816,-0.8131,-0.8106,-0.808,-0.8047,-0.8003,-0.7988,-0.7947,-0.7909,-0.785,-0.7825,-0.7791,-0.779,-0.7781,-0.7779,-0.7777,-0.7777,-0.7822,-0.7783,-0.7783,-0.7783,-0.7783,-0.7783,0,-0.825,-0.8227,-0.8195,-0.8152,-0.8124,-0.8115,-0.808,-0.8056,-0.802,-0.7987,-0.7955,-0.7908,-0.7869,-0.7833,-0.7792,-0.7771,-0.7764,-0.7761,-0.7762,-0.7756,-0.778,-0.779,-0.7768,-0.7768,-0.7768,-0.7768,-0.7768,-0.7768,-0.8231,-0.8193,-0.8177,-0.8124,-0.81,-0.8061,-0.8041,-0.8014,-0.7987,-0.7937,-0.7905,-0.7882,-0.7848,-0.7804,-0.7766,-0.7757,-0.7742,-0.7741,-0.7729,-0.7752,-0.7754,-0.7756,-0.7765,-0.7738,-0.7738,-0.7708,-0.7707,-0.7707]}]]